Cairns, Queensland

9:22 AM AEST on February 10, 2016 (GMT +1000)
Cairns

Weather History for 94287 - October, 2013

Change the Weather History Date:

Thursday, October 3, 2013

  Actual Average Record
Temperature  
Mean Temperature 76 °F -  
Max Temperature 84 °F 85 °F - ()
Min Temperature 69 °F 69 °F - ()
Cooling Degree Days 12    
Growing Degree Days 26 (Base 50)    
Moisture  
Dew Point 68 °F    
Average Humidity 75    
Maximum Humidity 94    
Minimum Humidity 43    
Precipitation  
Precipitation 0.00 in 0.06 in - ()
Sea Level Pressure  
Sea Level Pressure 29.91 in    
Wind  
Wind Speed 4 mph ()    
Max Wind Speed 12 mph    
Max Gust Speed -    
Visibility 7.0 miles    
Events Rain    
T = Trace of Precipitation, MM = Missing Value Source: Averaged Metar Reports

Daily Weather History Graph

Daily Weather History Graph

Search for Another Location

Airport or City:

Trip Planner

Search our weather history database for the weather conditions in past years. The results will help you decide how hot, cold, wet, or windy it might be!

Date:

Astronomy

Oct. 03, 2013 Rise Set
Actual Time 5:58 AM AEST 6:14 PM AEST
Civil Twilight 5:36 AM AEST 6:36 PM AEST
Nautical Twilight 5:11 AM AEST 7:01 PM AEST
Astronomical Twilight 4:45 AM AEST 7:26 PM AEST
Moon 4:22 AM AEST (10/3) 4:40 PM AEST (10/3)
Length of Visible Light 12h 59m
Length of Day
12h 16m
Waning Crescent, 4% of the Moon is Illuminated
Oct 3
Waning Crescent
Oct 5
New
Oct 12
First Quarter
Oct 19
Full
Oct 27
Last Quarter

Hourly Weather History & Observations

Time (AEST) Temp. Heat Index Dew Point Humidity Pressure Visibility Wind Dir Wind Speed Gust Speed Precip Events Conditions
12:00 AM 74 °F - 67 °F 73% 29.97 in - Calm Calm - -  
12:00 AM 73.4 °F - 66.2 °F 78% 29.95 in 6.2 mi Calm Calm - N/A   Mostly Cloudy
12:30 AM 75.2 °F - 66.2 °F 73% 29.95 in 6.2 mi SSE 3.5 mph - N/A   Mostly Cloudy
1:00 AM 73 °F - 67 °F 77% 29.95 in - SSE 6.9 mph - -  
1:00 AM 73.4 °F - 68.0 °F 83% 29.92 in 6.2 mi SSE 6.9 mph - N/A   Mostly Cloudy
1:30 AM 73.4 °F - 68.0 °F 83% 29.92 in 6.2 mi SSE 2.3 mph - N/A   Mostly Cloudy
2:00 AM 73.4 °F - 68.0 °F 83% 29.92 in 6.2 mi WNW 3.5 mph - N/A   Scattered Clouds
2:30 AM 73.4 °F - 68.0 °F 83% 29.89 in 6.2 mi West 5.8 mph - N/A   Scattered Clouds
3:00 AM 72 °F - 67 °F 81% 29.91 in - SSE 5.8 mph - -  
3:00 AM 73.4 °F - 68.0 °F 83% 29.89 in 6.2 mi SSE 5.8 mph - N/A   Scattered Clouds
3:30 AM 71.6 °F - 68.0 °F 88% 29.89 in 6.2 mi SSE 1.2 mph - N/A   Scattered Clouds
4:00 AM 72 °F - 68 °F 82% 29.91 in - Calm Calm - -  
4:00 AM 71.6 °F - 68.0 °F 88% 29.89 in 6.2 mi Calm Calm - N/A   Scattered Clouds
4:30 AM 69.8 °F - 68.0 °F 94% 29.89 in 6.2 mi Calm Calm - N/A   Partly Cloudy
5:00 AM 71.6 °F - 66.2 °F 83% 29.89 in 6.2 mi SSE 4.6 mph - N/A   Partly Cloudy
5:30 AM 71.6 °F - 66.2 °F 83% 29.92 in 6.2 mi SSE 9.2 mph - N/A   Scattered Clouds
6:00 AM 70 °F - 66 °F 85% 29.93 in 19 mi South 4.6 mph - -   Partly Cloudy
6:00 AM 69.8 °F - 66.2 °F 88% 29.92 in 6.2 mi South 4.6 mph - N/A   Scattered Clouds
6:30 AM 69.8 °F - 66.2 °F 88% 29.92 in 6.2 mi Calm Calm - N/A   Scattered Clouds
7:00 AM 73 °F - 67 °F 77% 29.95 in - Calm Calm - -  
7:00 AM 73.4 °F - 68.0 °F 83% 29.95 in 6.2 mi Calm Calm - N/A   Scattered Clouds
7:30 AM 77.0 °F - 66.2 °F 69% 29.95 in 6.2 mi WNW 3.5 mph - N/A   Scattered Clouds
8:00 AM 78.8 °F - 66.2 °F 65% 29.95 in 6.2 mi SSE 5.8 mph - N/A   Partly Cloudy
8:30 AM 80.6 °F 82.7 °F 66.2 °F 61% 29.95 in 6.2 mi ENE 4.6 mph - N/A   Partly Cloudy
9:00 AM 80 °F - 65 °F 52% 29.96 in 19 mi NNE 5.8 mph - -   Partly Cloudy
9:00 AM 80.6 °F 82.7 °F 66.2 °F 61% 29.95 in 6.2 mi NNE 5.8 mph - N/A   Partly Cloudy
9:30 AM 80.6 °F 82.7 °F 66.2 °F 61% 29.95 in 6.2 mi East 4.6 mph - N/A   Partly Cloudy
10:00 AM 83 °F - 64 °F 43% 29.97 in - NE 9.2 mph - -  
10:00 AM 84.2 °F 85.6 °F 64.4 °F 51% 29.95 in 6.2 mi NE 9.2 mph - N/A   Partly Cloudy
10:30 AM 82.4 °F 83.9 °F 64.4 °F 54% 29.95 in 6.2 mi NE 8.1 mph - N/A   Partly Cloudy
11:00 AM 82.4 °F 85.4 °F 68.0 °F 62% 29.95 in 6.2 mi NE 10.4 mph - N/A   Partly Cloudy
11:30 AM 82.4 °F 85.4 °F 68.0 °F 62% 29.92 in 6.2 mi ENE 11.5 mph - N/A   Partly Cloudy
12:00 PM 82.4 °F 85.4 °F 68.0 °F 62% 29.92 in 6.2 mi NE 11.5 mph - N/A   Partly Cloudy
12:30 PM 84.2 °F 87.3 °F 68.0 °F 58% 29.92 in 6.2 mi NE 11.5 mph - N/A   Partly Cloudy
1:00 PM 83 °F - 68 °F 52% 29.91 in - NE 10.4 mph - -  
1:00 PM 84.2 °F 87.3 °F 68.0 °F 58% 29.89 in 6.2 mi NE 10.4 mph - N/A   Partly Cloudy
1:30 PM 84.2 °F 87.3 °F 68.0 °F 58% 29.89 in 6.2 mi NE 11.5 mph - N/A   Scattered Clouds
2:00 PM 82.4 °F 85.4 °F 68.0 °F 62% 29.86 in 6.2 mi NE 11.5 mph - N/A   Scattered Clouds
2:30 PM 80.6 °F 83.2 °F 68.0 °F 65% 29.86 in 6.2 mi NE 8.1 mph - N/A   Mostly Cloudy
3:00 PM 81 °F - 67 °F 53% 29.86 in 19 mi NE 9.2 mph - -   Partly Cloudy
3:00 PM 80.6 °F 82.7 °F 66.2 °F 61% 29.86 in 6.2 mi NE 9.2 mph - N/A   Scattered Clouds
3:30 PM 78.8 °F - 68.0 °F 69% 29.86 in 6.2 mi NE 6.9 mph - N/A Rain Light Rain Showers
4:00 PM 78 °F - 70 °F 71% 29.89 in - SSE 2.3 mph - -  
4:00 PM 78.8 °F - 69.8 °F 74% 29.89 in 6.2 mi SSE 2.3 mph - N/A   Mostly Cloudy
4:30 PM 78.8 °F - 68.0 °F 69% 29.89 in 6.2 mi East 3.5 mph - N/A Rain Light Rain Showers
5:00 PM 77.0 °F - 69.8 °F 78% 29.83 in 6.2 mi North 8.1 mph - N/A Rain Light Rain Showers
5:30 PM 77.0 °F - 69.8 °F 78% 29.83 in 6.2 mi West 5.8 mph - N/A   Mostly Cloudy
6:00 PM 76 °F - 69 °F 74% 29.86 in - NW 2.3 mph - -  
6:00 PM 75.2 °F - 69.8 °F 83% 29.86 in 6.2 mi NW 2.3 mph - N/A   Scattered Clouds
6:30 PM 75.2 °F - 69.8 °F 83% 29.86 in 6.2 mi SSE 3.5 mph - N/A   Scattered Clouds
7:00 PM 76 °F - 70 °F 76% 29.89 in - South 4.6 mph - -  
7:00 PM 75.2 °F - 69.8 °F 83% 29.89 in 6.2 mi South 4.6 mph - N/A   Scattered Clouds
7:30 PM 75.2 °F - 69.8 °F 83% 29.86 in - SSE 6.9 mph - N/A   Clear
8:00 PM 75.2 °F - 69.8 °F 83% 29.89 in 6.2 mi SSE 6.9 mph - N/A   Scattered Clouds
8:30 PM 73.4 °F - 69.8 °F 88% 29.89 in 6.2 mi South 6.9 mph - N/A   Scattered Clouds
9:00 PM 74 °F - 69 °F 79% 29.91 in - SSE 5.8 mph - -  
9:00 PM 73.4 °F - 69.8 °F 88% 29.89 in 6.2 mi SSE 5.8 mph - N/A   Mostly Cloudy
9:30 PM 73.4 °F - 69.8 °F 88% 29.92 in 6.2 mi Calm Calm - N/A   Mostly Cloudy
10:00 PM 72 °F - 69 °F 88% 29.92 in - WNW 3.5 mph - -  
10:00 PM 71.6 °F - 69.8 °F 94% 29.92 in 6.2 mi WNW 3.5 mph - N/A   Scattered Clouds
10:30 PM 71.6 °F - 69.8 °F 94% 29.92 in 6.2 mi Calm Calm - N/A   Scattered Clouds
11:00 PM 73.4 °F - 68.0 °F 83% 29.92 in 6.2 mi SSE 5.8 mph - N/A   Scattered Clouds
11:30 PM 73.4 °F - 69.8 °F 88% 29.89 in 6.2 mi West 3.5 mph - N/A   Scattered Clouds